Zurück zum Katalog

STARLINK-35046

AktivKommunikationVLEO
NORAD 65701·PAYLOAD·🇺🇸 United States

Gestartet Sep 21, 2025 von Cape Canaveral Space Force Station

Loading…

Nächste Überflüge (nächste 24 Stunden)

TLE

AktuellSource: CelesTrak SupGP

Epoche: Sep 14, 2026, 22:37 UTC

1 65701C 25212AB  26257.94284722 -.00033351  00000+0 -98522-3 0  2573
2 65701  53.1577 183.7036 0001299  87.6810 144.3230 15.34412123    12

Verfolge STARLINK-35046 in Echtzeit mit AllMySat

Download on the App Store